Orbital Elements
Epoch 2019 Nov. 13.0 TT = JDT 2458800.5
T 2019 Nov. 30.52557 TT MPC
q 1.7403487 (2000.0) P Q
n 0.15130412 Peri. 345.44336 +0.97137030 +0.23755871
a 3.4879390 Node 0.82532 -0.19822313 +0.81593853
e 0.5010381 Incl. 9.45634 -0.13094783 +0.52707701
P 6.51
From 113 observations 2013 Sept. 14-Dec. 11, mean residual 0".5.
|